Location: Champs
(48.8539°N, 2.6040°E)
Time: 13:38:22
(UTC+00:00)

Cosmos 1371 Rocket - Pass Details

Date: 26 October 2021
Orbit: 754 x 789 km, 74.0° (Epoch: 07 December)

Event Time Altitude Azimuth Distance (km) Brightness Sun altitude
Rises 05:14:21 0° 334° (NNW) 3,221 6.9 -12.5°
Reaches altitude 10° 05:16:45 10° 331° (NNW) 2,291 6.1 -12.1°
Maximum altitude 05:21:51 63° 252° (WSW) 845 4.0 -11.3°
Drops below altitude 10° 05:26:57 10° 172° (S) 2,278 6.7 -10.5°
Sets 05:29:19 0° 169° (S) 3,202 7.5 -10.1°
